New Bedford, MA

2:56 AM EDT on July 30, 2016 (GMT -0400)
New Bedford Regional

Weather History for KEWB - March, 2011

Change the Weather History Date:

Tuesday, March 1, 2011

  Actual Average Record
Temperature  
Mean Temperature 34 °F -  
Max Temperature 42 °F 41 °F 59 °F (1972)
Min Temperature 25 °F 27 °F 0 °F (2015)
Degree Days  
Heating Degree Days 32    
Moisture  
Dew Point 14 °F    
Average Humidity 46    
Maximum Humidity 78    
Minimum Humidity 19    
Precipitation  
Precipitation 0.00 in - - ()
Sea Level Pressure  
Sea Level Pressure 30.12 in    
Wind  
Wind Speed 7 mph (NW)    
Max Wind Speed 13 mph    
Max Gust Speed 25 mph    
Visibility 10 miles    
Events      
Averages and records for this station are not official NWS values.
T = Trace of Precipitation, MM = Missing Value Source: NWS Daily Summary

Daily Weather History Graph

Daily Weather History Graph

Search for Another Location

Airport or City:

Trip Planner

Search our weather history database for the weather conditions in past years. The results will help you decide how hot, cold, wet, or windy it might be!

Date:

Astronomy

Mar. 01, 2011 Rise Set
Actual Time 6:19 AM EST 5:33 PM EST
Civil Twilight 5:51 AM EST 6:01 PM EST
Nautical Twilight 5:19 AM EST 6:34 PM EST
Astronomical Twilight 4:46 AM EST 7:06 PM EST
Moon 4:27 AM EST (3/1) 2:44 PM EST (3/1)
Length of Visible Light 12h 10m
Length of Day
11h 14m
Waning Crescent, 9% of the Moon is Illuminated
Mar 1
Waning Crescent
Mar 4
New
Mar 12
First Quarter
Mar 19
Full
Mar 26
Last Quarter

Hourly Weather History & Observations

Time (EST) Temp. Windchill Dew Point Humidity Pressure Visibility Wind Dir Wind Speed Gust Speed Precip Events Conditions
12:53 AM 42.1 °F 36.6 °F 30.0 °F 62% 29.76 in 10.0 mi NNW 9.2 mph 23.0 mph N/A   Overcast
1:53 AM 39.9 °F 32.9 °F 25.0 °F 55% 29.81 in 10.0 mi NW 11.5 mph - N/A   Mostly Cloudy
2:53 AM 39.0 °F 32.3 °F 24.1 °F 55% 29.83 in 10.0 mi NW 10.4 mph 25.3 mph N/A   Partly Cloudy
3:53 AM 36.0 °F 28.5 °F 19.9 °F 52% 29.89 in 10.0 mi NNW 10.4 mph 21.9 mph N/A   Partly Cloudy
4:53 AM 34.0 °F 25.5 °F 15.1 °F 46% 29.96 in 10.0 mi NW 11.5 mph 20.7 mph N/A   Clear
5:53 AM 33.1 °F - 16.0 °F 50% 30.01 in 10.0 mi Calm Calm - N/A   Clear
6:53 AM 32.0 °F 27.5 °F 16.0 °F 52% 30.06 in 10.0 mi NW 4.6 mph - N/A   Clear
7:53 AM 35.1 °F 27.9 °F 15.1 °F 44% 30.11 in 10.0 mi NW 9.2 mph 17.3 mph N/A   Clear
8:53 AM 35.1 °F 27.9 °F 15.1 °F 44% 30.14 in 10.0 mi NW 9.2 mph 17.3 mph N/A   Clear
9:53 AM 35.1 °F 27.9 °F 12.9 °F 40% 30.15 in 10.0 mi NW 9.2 mph 21.9 mph N/A   Clear
10:53 AM 37.9 °F 30.0 °F 10.9 °F 33% 30.17 in 10.0 mi NNW 12.7 mph 18.4 mph N/A   Clear
11:53 AM 39.9 °F 33.9 °F 10.0 °F 29% 30.17 in 10.0 mi NW 9.2 mph 18.4 mph N/A   Clear
12:53 PM 41.0 °F 34.7 °F 6.8 °F 24% 30.16 in 10.0 mi NNW 10.4 mph 20.7 mph N/A   Clear
1:53 PM 41.0 °F 36.4 °F 3.9 °F 21% 30.17 in 10.0 mi NNW 6.9 mph 18.4 mph N/A   Clear
2:53 PM 42.8 °F 38.0 °F 3.2 °F 19% 30.19 in 10.0 mi NW 8.1 mph - N/A   Clear
3:53 PM 42.1 °F 39.2 °F 3.0 °F 20% 30.21 in 10.0 mi Variable 4.6 mph - N/A   Clear
4:53 PM 41.0 °F 37.1 °F 6.1 °F 24% 30.22 in 10.0 mi Variable 5.8 mph - N/A   Clear
5:53 PM 37.0 °F - 6.1 °F 28% 30.24 in 10.0 mi Calm Calm - N/A   Clear
6:53 PM 30.9 °F - 12.0 °F 46% 30.25 in 10.0 mi Calm Calm - N/A   Clear
7:53 PM 28.0 °F - 16.0 °F 61% 30.26 in 10.0 mi Calm Calm - N/A   Clear
8:53 PM 25.0 °F - 16.0 °F 69% 30.27 in 10.0 mi Calm Calm - N/A   Clear
9:53 PM 25.0 °F - 18.0 °F 75% 30.28 in 10.0 mi Calm Calm - N/A   Clear
10:53 PM 26.6 °F - 17.6 °F 69% 30.27 in 10.0 mi Calm Calm - N/A   Clear
11:53 PM 25.0 °F - 19.0 °F 78% 30.26 in 10.0 mi Calm Calm - N/A   Clear